,,PA_Meas_PMT16A,,PR_Meas_QMR101_102,,RH_Meas_QMH101,,SR_Meas_QMS101,,TA_Meas_QMH101,,GenWind,,GenWind,
time,status,PA,status,PR,status,RH,status,SR,status,TA,status,DirAvg,status,SpdAvg,
2014-08-11, 07:35:04,VALID,918.243,VALID,0,VALID,97.3891,VALID,57.481,VALID,19.4103,VALID,150,VALID,0.605859,
2014-08-11, 07:36:04,VALID,918.243,VALID,0,VALID,97.3968,VALID,58.9852,VALID,19.4103,VALID,121,VALID,1.51758,
2014-08-11, 07:37:04,VALID,918.24,VALID,0,VALID,97.3891,VALID,60.7043,VALID,19.4313,VALID,128,VALID,1.52305,
2014-08-11, 07:38:04,VALID,918.271,VALID,0,VALID,97.412,VALID,62.4233,VALID,19.4298,VALID,112,VALID,1.89531,
2014-08-11, 07:39:04,VALID,918.281,VALID,0,VALID,97.3891,VALID,64.2498,VALID,19.4298,VALID,129,VALID,0.680078,
2014-08-11, 07:40:04,VALID,918.313,VALID,0,VALID,97.3739,VALID,65.8614,VALID,19.4703,VALID,109,VALID,1.42305,
2014-08-11, 07:41:04,VALID,918.33,VALID,0,VALID,97.3739,VALID,67.473,VALID,19.4703,VALID,128,VALID,1.09531,
2014-08-11, 07:42:04,VALID,918.305,VALID,0,VALID,97.3663,VALID,68.9772,VALID,19.4883,VALID,101,VALID,1.58008,
2014-08-11, 07:43:04,VALID,918.349,VALID,0,VALID,97.3815,VALID,70.2665,VALID,19.4883,VALID,109,VALID,1.62305,
2014-08-11, 07:44:04,VALID,918.359,VALID,0,VALID,97.3891,VALID,71.7707,VALID,19.4883,VALID,124,VALID,1.64023,
2014-08-11, 07:45:04,VALID,918.365,VALID,0,VALID,97.3739,VALID,73.3823,VALID,19.5078,VALID,113,VALID,1.74492,
2014-08-11, 07:46:04,VALID,918.383,VALID,0,VALID,97.3968,VALID,75.2088,VALID,19.5078,VALID,116,VALID,1.25703,
2014-08-11, 07:47:04,VALID,918.39,VALID,0,VALID,97.3739,VALID,77.4651,VALID,19.5273,VALID,98,VALID,1.0875,
2014-08-11, 07:48:04,VALID,918.379,VALID,0,VALID,97.351,VALID,80.1511,VALID,19.5663,VALID,101,VALID,1.18594,
2014-08-11, 07:49:04,VALID,918.381,VALID,0,VALID,97.3586,VALID,83.2669,VALID,19.5858,VALID,111,VALID,1.25664,
2014-08-11, 07:50:04,VALID,918.397,VALID,0,VALID,97.3586,VALID,86.3827,VALID,19.5858,VALID,99,VALID,1.49063,
2014-08-11, 07:51:04,VALID,918.4,VALID,0,VALID,97.351,VALID,89.7134,VALID,19.6263,VALID,127,VALID,0.941016,
2014-08-11, 07:52:04,VALID,918.416,VALID,0,VALID,97.3586,VALID,92.9366,VALID,19.6053,VALID,104,VALID,1.26523,
2014-08-11, 07:53:04,VALID,918.441,VALID,0,VALID,97.3586,VALID,95.9449,VALID,19.6653,VALID,95,VALID,0.93125,
2014-08-11, 07:54:04,VALID,918.415,VALID,0,VALID,97.351,VALID,98.8459,VALID,19.6833,VALID,117,VALID,0.758203,
2014-08-11, 07:55:04,VALID,918.422,VALID,0,VALID,97.3434,VALID,101.317,VALID,19.6638,VALID,138,VALID,1.73398,
2014-08-11, 07:56:04,VALID,918.413,VALID,0,VALID,97.3129,VALID,103.681,VALID,19.7223,VALID,147,VALID,0.962891,
2014-08-11, 07:57:04,VALID,918.457,VALID,0,VALID,97.3129,VALID,106.152,VALID,19.8003,VALID,164,VALID,0.409375,
2014-08-11, 07:58:04,VALID,918.469,VALID,0,VALID,97.3129,VALID,108.516,VALID,19.8198,VALID,160,VALID,0.620703,
2014-08-11, 07:59:04,VALID,918.483,VALID,0,VALID,97.3129,VALID,110.879,VALID,19.8588,VALID,144,VALID,0.469141,
2014-08-11, 08:00:04,VALID,918.525,VALID,0,VALID,97.29,VALID,113.028,VALID,19.8783,VALID,90,VALID,0.376953,
2014-08-11, 08:01:04,VALID,918.542,VALID,0,VALID,97.2748,VALID,114.962,VALID,19.9563,VALID,90,VALID,0.0460938,
2014-08-11, 08:02:04,VALID,918.552,VALID,0,VALID,97.2824,VALID,116.896,VALID,19.9758,VALID,94,VALID,0.370313,
2014-08-11, 08:03:04,VALID,918.574,VALID,0,VALID,97.2824,VALID,119.152,VALID,19.9758,VALID,94,VALID,0.510547,
2014-08-11, 08:04:04,VALID,918.611,VALID,0,VALID,97.2672,VALID,122.913,VALID,19.9368,VALID,132,VALID,0.694141,
2014-08-11, 08:05:04,VALID,918.652,VALID,0,VALID,97.2824,VALID,128.07,VALID,19.9368,VALID,132,VALID,0.330078,
2014-08-11, 08:06:04,VALID,918.656,VALID,0,VALID,97.2519,VALID,134.516,VALID,19.9743,VALID,132,VALID,0.248828,
2014-08-11, 08:07:04,VALID,918.713,VALID,0,VALID,97.2443,VALID,141.822,VALID,20.0538,VALID,132,VALID,0.210156,
2014-08-11, 08:08:04,VALID,918.732,VALID,0,VALID,97.2672,VALID,149.558,VALID,20.0343,VALID,132,VALID,0.392578,
2014-08-11, 08:09:04,VALID,918.73,VALID,0,VALID,97.2367,VALID,157.186,VALID,20.0928,VALID,132,VALID,0.490625,
2014-08-11, 08:10:04,VALID,918.74,VALID,0,VALID,97.2367,VALID,164.385,VALID,20.0523,VALID,148,VALID,0.952734,
2014-08-11, 08:11:04,VALID,918.78,VALID,0,VALID,97.2367,VALID,171.584,VALID,20.0718,VALID,148,VALID,0.629687,
2014-08-11, 08:12:04,VALID,918.771,VALID,0,VALID,97.2367,VALID,178.567,VALID,20.1123,VALID,148,VALID,0.801172,
2014-08-11, 08:13:04,VALID,918.768,VALID,0,VALID,97.229,VALID,184.691,VALID,20.1123,VALID,148,VALID,1.1125,
2014-08-11, 08:14:04,VALID,918.793,VALID,0,VALID,97.2214,VALID,190.493,VALID,20.1318,VALID,162,VALID,1.17656,
2014-08-11, 08:15:04,VALID,918.822,VALID,0,VALID,97.2138,VALID,195.865,VALID,20.1513,VALID,165,VALID,0.432813,
2014-08-11, 08:16:04,VALID,918.861,VALID,0,VALID,97.1986,VALID,200.808,VALID,20.2489,VALID,165,VALID,0.840234,
2014-08-11, 08:17:04,VALID,918.869,VALID,0,VALID,97.1909,VALID,206.072,VALID,20.2293,VALID,136,VALID,0.90625,
2014-08-11, 08:18:04,VALID,918.893,VALID,0,VALID,97.1604,VALID,211.122,VALID,20.3269,VALID,171,VALID,1.02695,
2014-08-11, 08:19:04,VALID,918.92,VALID,0,VALID,97.1604,VALID,216.172,VALID,20.3464,VALID,160,VALID,0.75625,
2014-08-11, 08:20:04,VALID,918.915,VALID,0,VALID,97.1909,VALID,219.61,VALID,20.2684,VALID,154,VALID,1.00312,
2014-08-11, 08:21:04,VALID,918.889,VALID,0,VALID,97.1299,VALID,221.006,VALID,20.3253,VALID,178,VALID,0.989062,
2014-08-11, 08:22:04,VALID,918.927,VALID,0,VALID,97.1299,VALID,220.899,VALID,20.3838,VALID,171,VALID,0.661719,
2014-08-11, 08:23:04,VALID,918.938,VALID,0,VALID,97.1147,VALID,220.039,VALID,20.4228,VALID,125,VALID,1.37227,
2014-08-11, 08:24:04,VALID,918.967,VALID,0,VALID,97.1223,VALID,216.816,VALID,20.4244,VALID,137,VALID,0.748828,
2014-08-11, 08:25:04,VALID,918.96,VALID,0,VALID,97.069,VALID,211.981,VALID,20.4829,VALID,160,VALID,0.784375,
2014-08-11, 08:26:04,VALID,918.974,VALID,0,VALID,97.0613,VALID,205.965,VALID,20.4618,VALID,133,VALID,1.1418,
2014-08-11, 08:27:04,VALID,918.981,VALID,0,VALID,97.0308,VALID,199.948,VALID,20.5594,VALID,167,VALID,0.635547,
2014-08-11, 08:28:04,VALID,918.998,VALID,0,VALID,96.9927,VALID,195.865,VALID,20.5984,VALID,130,VALID,0.408984,
2014-08-11, 08:29:04,VALID,919.001,VALID,0,VALID,96.9927,VALID,192.749,VALID,20.6179,VALID,153,VALID,1.41992,
2014-08-11, 08:30:04,VALID,919.015,VALID,0,VALID,96.9546,VALID,191.46,VALID,20.6374,VALID,147,VALID,1.37031,
2014-08-11, 08:31:04,VALID,919.047,VALID,0,VALID,96.9394,VALID,192.212,VALID,20.6179,VALID,120,VALID,0.888281,
2014-08-11, 08:32:04,VALID,919.022,VALID,0,VALID,96.8784,VALID,194.146,VALID,20.5789,VALID,124,VALID,1.11914,
2014-08-11, 08:33:04,VALID,919.015,VALID,0,VALID,96.825,VALID,196.617,VALID,20.5984,VALID,136,VALID,1.5918,
2014-08-11, 08:34:04,VALID,919.023,VALID,0,VALID,96.8021,VALID,199.303,VALID,20.5968,VALID,143,VALID,1.02656,
2014-08-11, 08:35:04,VALID,919.018,VALID,0,VALID,96.7488,VALID,202.204,VALID,20.6374,VALID,145,VALID,1.325,
2014-08-11, 08:36:04,VALID,919.02,VALID,0,VALID,96.6725,VALID,205.105,VALID,20.6374,VALID,108,VALID,1.13281,
2014-08-11, 08:37:04,VALID,918.992,VALID,0,VALID,96.5734,VALID,208.436,VALID,20.5773,VALID,126,VALID,1.05586,
2014-08-11, 08:38:04,VALID,918.998,VALID,0,VALID,96.4667,VALID,213.378,VALID,20.5789,VALID,126,VALID,0.630469,
2014-08-11, 08:39:04,VALID,919.022,VALID,0,VALID,96.4133,VALID,219.61,VALID,20.6374,VALID,138,VALID,0.859766,
2014-08-11, 08:40:04,VALID,919.005,VALID,0,VALID,96.4362,VALID,228.42,VALID,20.7154,VALID,152,VALID,0.849219,
2014-08-11, 08:41:04,VALID,918.988,VALID,0,VALID,96.4133,VALID,234.866,VALID,20.7333,VALID,160,VALID,0.678125,
2014-08-11, 08:42:04,VALID,918.994,VALID,0,VALID,96.3295,VALID,241.635,VALID,20.8129,VALID,160,VALID,0.389844,
2014-08-11, 08:43:04,VALID,918.99,VALID,0,VALID,96.3295,VALID,247.974,VALID,20.9105,VALID,160,VALID,0.769141,
2014-08-11, 08:44:04,VALID,919.016,VALID,0,VALID,96.2761,VALID,253.239,VALID,20.9885,VALID,173,VALID,0.528125,
2014-08-11, 08:45:04,VALID,919.008,VALID,0,VALID,96.1694,VALID,258.074,VALID,20.969,VALID,188,VALID,0.568359,
2014-08-11, 08:46:04,VALID,919.029,VALID,0,VALID,95.9941,VALID,268.173,VALID,21.0275,VALID,154,VALID,0.513672,
2014-08-11, 08:47:04,VALID,919.01,VALID,0,VALID,95.8263,VALID,281.496,VALID,20.9674,VALID,142,VALID,1.39531,
2014-08-11, 08:48:04,VALID,919.013,VALID,0,VALID,95.3766,VALID,282.355,VALID,20.93,VALID,145,VALID,1.5625,
2014-08-11, 08:49:04,VALID,919.06,VALID,0,VALID,95.1555,VALID,292.992,VALID,20.9901,VALID,180,VALID,1.58086,
2014-08-11, 08:50:04,VALID,919.074,VALID,0,VALID,95.125,VALID,309.645,VALID,21.1071,VALID,173,VALID,1.38516,
2014-08-11, 08:51:04,VALID,919.063,VALID,0,VALID,94.8353,VALID,324.043,VALID,21.164,VALID,161,VALID,1.59219,
2014-08-11, 08:52:04,VALID,919.052,VALID,0,VALID,94.4999,VALID,340.803,VALID,21.2421,VALID,137,VALID,1.04492,
2014-08-11, 08:53:04,VALID,919.051,VALID,0,VALID,93.6384,VALID,353.589,VALID,21.3006,VALID,154,VALID,1.55703,
2014-08-11, 08:54:04,VALID,919.06,VALID,0,VALID,93.3716,VALID,361.11,VALID,21.3981,VALID,155,VALID,0.51875,
2014-08-11, 08:55:04,VALID,919.056,VALID,0,VALID,91.9765,VALID,364.87,VALID,21.4177,VALID,156,VALID,1.44062,
2014-08-11, 08:56:04,VALID,919.069,VALID,0,VALID,91.5039,VALID,377.763,VALID,21.4567,VALID,155,VALID,1.41758,
2014-08-11, 08:57:04,VALID,919.042,VALID,0,VALID,91.4276,VALID,391.623,VALID,21.5932,VALID,184,VALID,1.06523,
2014-08-11, 08:58:04,VALID,919.059,VALID,0,VALID,91.3514,VALID,402.367,VALID,21.7298,VALID,170,VALID,1.07031,
2014-08-11, 08:59:04,VALID,919.056,VALID,0,VALID,91.1303,VALID,420.632,VALID,21.8859,VALID,179,VALID,1.49609,
2014-08-11, 09:00:04,VALID,919.033,VALID,0,VALID,90.6958,VALID,431.591,VALID,21.9054,VALID,169,VALID,1.0625,
2014-08-11, 09:01:04,VALID,919.022,VALID,0,VALID,90.7796,VALID,415.797,VALID,21.9818,VALID,167,VALID,1.325,
2014-08-11, 09:02:04,VALID,919.037,VALID,0,VALID,90.5967,VALID,435.352,VALID,22.1396,VALID,192,VALID,1.02773,
2014-08-11, 09:03:04,VALID,919.025,VALID,0,VALID,89.7581,VALID,464.146,VALID,22.2354,VALID,179,VALID,1.89531,
2014-08-11, 09:04:04,VALID,919.057,VALID,0,VALID,88.6375,VALID,489.394,VALID,22.2371,VALID,167,VALID,1.69531,
2014-08-11, 09:05:04,VALID,919.034,VALID,0,VALID,88.9348,VALID,506.907,VALID,22.2354,VALID,167,VALID,1.34453,
2014-08-11, 09:06:04,VALID,919.035,VALID,0,VALID,89.2702,VALID,589.852,VALID,22.3542,VALID,168,VALID,1.66094,
2014-08-11, 09:07:04,VALID,919.032,VALID,0,VALID,87.7608,VALID,533.23,VALID,22.4306,VALID,155,VALID,1.7375,
2014-08-11, 09:08:04,VALID,918.993,VALID,0,VALID,87.9132,VALID,544.834,VALID,22.5672,VALID,184,VALID,1.56719,
2014-08-11, 09:09:04,VALID,918.991,VALID,0,VALID,88.3935,VALID,556.867,VALID,22.6843,VALID,158,VALID,1.06055,
2014-08-11, 09:10:04,VALID,919.008,VALID,0,VALID,88.8585,VALID,556.545,VALID,22.9007,VALID,182,VALID,0.910937,
2014-08-11, 09:11:04,VALID,918.989,VALID,0,VALID,87.5244,VALID,587.488,VALID,23.0763,VALID,186,VALID,1.15195,
2014-08-11, 09:12:04,VALID,918.996,VALID,0,VALID,87.1356,VALID,587.918,VALID,23.2502,VALID,198,VALID,0.836328,
2014-08-11, 09:13:04,VALID,918.979,VALID,0,VALID,87.6235,VALID,625.63,VALID,23.465,VALID,191,VALID,0.577734,
2014-08-11, 09:14:04,VALID,918.994,VALID,0,VALID,86.4953,VALID,620.795,VALID,23.6797,VALID,181,VALID,0.166797,
2014-08-11, 09:15:04,VALID,919.009,VALID,0,VALID,84.7648,VALID,619.183,VALID,23.7968,VALID,174,VALID,1.49961,
2014-08-11, 09:16:04,VALID,919.001,VALID,0,VALID,82.0584,VALID,635.514,VALID,23.7773,VALID,174,VALID,1.97344,
2014-08-11, 09:17:04,VALID,919.031,VALID,0,VALID,81.9746,VALID,543.437,VALID,23.6797,VALID,170,VALID,1.69375,
2014-08-11, 09:18:04,VALID,919.002,VALID,0,VALID,81.2656,VALID,520.23,VALID,23.5626,VALID,181,VALID,1.67266,
2014-08-11, 09:19:04,VALID,919,VALID,0,VALID,82.897,VALID,479.51,VALID,23.6797,VALID,162,VALID,0.96875,
2014-08-11, 09:20:04,VALID,919,VALID,0,VALID,82.7293,VALID,453.724,VALID,23.7578,VALID,191,VALID,0.820703,
2014-08-11, 09:21:04,VALID,919.008,VALID,0,VALID,82.7217,VALID,402.367,VALID,23.7169,VALID,181,VALID,1.39414,
2014-08-11, 09:22:04,VALID,918.973,VALID,0,VALID,83.3544,VALID,412.681,VALID,23.7364,VALID,167,VALID,0.740234,
2014-08-11, 09:23:04,VALID,918.973,VALID,0,VALID,81.9365,VALID,419.773,VALID,23.834,VALID,196,VALID,1.88945,
2014-08-11, 09:24:04,VALID,918.994,VALID,0,VALID,80.7625,VALID,417.194,VALID,23.8944,VALID,189,VALID,2.13867,
2014-08-11, 09:25:04,VALID,918.95,VALID,0,VALID,81.906,VALID,419.128,VALID,23.8944,VALID,177,VALID,0.895703,
2014-08-11, 09:26:04,VALID,918.971,VALID,0,VALID,81.3037,VALID,481.659,VALID,23.8944,VALID,189,VALID,1.76523,
2014-08-11, 09:27:04,VALID,918.991,VALID,0,VALID,82.3786,VALID,462.319,VALID,23.9316,VALID,164,VALID,0.79375,
2014-08-11, 09:28:04,VALID,919.002,VALID,0,VALID,80.6939,VALID,517.866,VALID,23.8554,VALID,170,VALID,2.03398,
2014-08-11, 09:29:04,VALID,918.967,VALID,0,VALID,81.6163,VALID,518.189,VALID,23.7968,VALID,176,VALID,1.61289,
2014-08-11, 09:30:04,VALID,918.995,VALID,0,VALID,82.0966,VALID,467.047,VALID,23.8358,VALID,181,VALID,1.57813,
2014-08-11, 09:31:04,VALID,918.985,VALID,0,VALID,81.4028,VALID,377.333,VALID,23.8749,VALID,171,VALID,1.09687,
2014-08-11, 09:32:04,VALID,918.991,VALID,0,VALID,81.2275,VALID,365.3,VALID,23.8358,VALID,171,VALID,1.0375,
2014-08-11, 09:33:04,VALID,918.991,VALID,0,VALID,82.1652,VALID,374.325,VALID,23.8731,VALID,164,VALID,0.726563,
2014-08-11, 09:34:04,VALID,918.951,VALID,0,VALID,80.5261,VALID,455.658,VALID,23.9335,VALID,200,VALID,1.52852,
2014-08-11, 09:35:04,VALID,918.957,VALID,0,VALID,81.3342,VALID,434.385,VALID,23.9707,VALID,163,VALID,0.779688,
2014-08-11, 09:36:04,VALID,918.966,VALID,0,VALID,81.4638,VALID,393.342,VALID,24.1287,VALID,190,VALID,1.33359,
2014-08-11, 09:37:04,VALID,918.938,VALID,0,VALID,80.0764,VALID,441.368,VALID,24.2049,VALID,166,VALID,1.02891,
2014-08-11, 09:38:04,VALID,918.954,VALID,0,VALID,79.3826,VALID,394.846,VALID,24.1659,VALID,155,VALID,0.832812,
2014-08-11, 09:39:04,VALID,918.959,VALID,0,VALID,79.375,VALID,354.019,VALID,24.244,VALID,157,VALID,0.457031,
2014-08-11, 09:40:04,VALID,918.987,VALID,0,VALID,77.8351,VALID,281.711,VALID,24.2245,VALID,165,VALID,0.776172,
2014-08-11, 09:41:04,VALID,918.971,VALID,0,VALID,75.8759,VALID,291.488,VALID,24.1073,VALID,176,VALID,1.89922,
2014-08-11, 09:42:04,VALID,918.967,VALID,0,VALID,77.5606,VALID,280.744,VALID,24.0488,VALID,172,VALID,0.936719,
2014-08-11, 09:43:04,VALID,918.987,VALID,0,VALID,79.0167,VALID,255.817,VALID,23.9689,VALID,165,VALID,0.710938,
2014-08-11, 09:44:04,VALID,918.985,VALID,0,VALID,78.8033,VALID,247.867,VALID,23.9316,VALID,146,VALID,0.864844,
2014-08-11, 09:45:04,VALID,918.952,VALID,0,VALID,79.558,VALID,251.735,VALID,23.9121,VALID,163,VALID,0.755859,
2014-08-11, 09:46:04,VALID,918.947,VALID,0,VALID,79.6952,VALID,274.297,VALID,23.9121,VALID,163,VALID,0.0523437,
2014-08-11, 09:47:04,VALID,918.946,VALID,0,VALID,77.1718,VALID,317.596,VALID,23.8944,VALID,113,VALID,1.74023,
2014-08-11, 09:48:04,VALID,918.965,VALID,0,VALID,80.4804,VALID,441.046,VALID,23.8926,VALID,98,VALID,0.888281,
2014-08-11, 09:49:04,VALID,918.942,VALID,0,VALID,79.84,VALID,538.602,VALID,23.9298,VALID,128,VALID,2.02852,
2014-08-11, 09:50:04,VALID,918.914,VALID,0,VALID,79.8095,VALID,307.604,VALID,24.0292,VALID,126,VALID,0.873047,
2014-08-11, 09:51:04,VALID,918.934,VALID,0,VALID,81.6163,VALID,346.927,VALID,24.0878,VALID,107,VALID,1.10078,
2014-08-11, 09:52:04,VALID,918.916,VALID,0,VALID,78.8414,VALID,600.918,VALID,24.1073,VALID,128,VALID,1.95781,
2014-08-11, 09:53:04,VALID,918.892,VALID,0,VALID,80.2517,VALID,505.403,VALID,24.1269,VALID,169,VALID,1.24453,
2014-08-11, 09:54:04,VALID,918.916,VALID,0,VALID,79.2759,VALID,684.4,VALID,24.283,VALID,126,VALID,1.36992,
2014-08-11, 09:55:04,VALID,918.868,VALID,0,VALID,76.9279,VALID,741.989,VALID,24.3611,VALID,114,VALID,2.19961,
2014-08-11, 09:56:04,VALID,918.844,VALID,0,VALID,79.558,VALID,684.615,VALID,24.3983,VALID,65,VALID,1.09141,
2014-08-11, 09:57:04,VALID,918.862,VALID,0,VALID,76.2265,VALID,675.912,VALID,24.5368,VALID,136,VALID,1.74023,
2014-08-11, 09:58:04,VALID,918.83,VALID,0,VALID,75.7081,VALID,494.981,VALID,24.5564,VALID,163,VALID,2.03594,
2014-08-11, 09:59:04,VALID,918.827,VALID,0,VALID,75.8073,VALID,401.185,VALID,24.4978,VALID,151,VALID,1.35977,
2014-08-11, 10:00:04,VALID,918.859,VALID,0,VALID,76.8593,VALID,437.93,VALID,24.3593,VALID,134,VALID,1.65391,
2014-08-11, 10:01:04,VALID,918.841,VALID,0,VALID,74.2216,VALID,429.013,VALID,24.3398,VALID,151,VALID,1.57656,
2014-08-11, 10:02:04,VALID,918.833,VALID,0,VALID,76.8059,VALID,580.612,VALID,24.3416,VALID,128,VALID,1.64453,
2014-08-11, 10:03:04,VALID,918.827,VALID,0,VALID,76.3104,VALID,721.897,VALID,24.3202,VALID,114,VALID,1.19453,
2014-08-11, 10:04:04,VALID,918.781,VALID,0,VALID,77.2404,VALID,665.168,VALID,24.4783,VALID,87,VALID,0.179688,
2014-08-11, 10:05:04,VALID,918.797,VALID,0,VALID,76.1579,VALID,501.75,VALID,24.6559,VALID,172,VALID,1.04648,
2014-08-11, 10:06:04,VALID,918.789,VALID,0,VALID,76.0055,VALID,523.883,VALID,24.6949,VALID,163,VALID,1.36289,
2014-08-11, 10:07:04,VALID,918.768,VALID,0,VALID,73.5431,VALID,514.536,VALID,24.6754,VALID,175,VALID,1.38398,
2014-08-11, 10:08:04,VALID,918.766,VALID,0,VALID,74.5799,VALID,502.825,VALID,24.7126,VALID,86,VALID,0.236328,
2014-08-11, 10:09:04,VALID,918.764,VALID,0,VALID,76.4095,VALID,590.711,VALID,24.8902,VALID,92,VALID,0.00117188,
2014-08-11, 10:10:04,VALID,918.782,VALID,0,VALID,74.3054,VALID,799.47,VALID,24.9683,VALID,140,VALID,1.98398,
2014-08-11, 10:11:04,VALID,918.789,VALID,0,VALID,74.0615,VALID,689.665,VALID,24.9292,VALID,159,VALID,0.661328,
2014-08-11, 10:12:04,VALID,918.754,VALID,0,VALID,73.0704,VALID,783.998,VALID,24.9664,VALID,144,VALID,0.105859,
2014-08-11, 10:13:04,VALID,918.757,VALID,0,VALID,71.6525,VALID,823.966,VALID,25.2417,VALID,162,VALID,0.253906,
2014-08-11, 10:14:04,VALID,918.772,VALID,0,VALID,70.791,VALID,823.214,VALID,25.357,VALID,169,VALID,0.876172,
2014-08-11, 10:15:04,VALID,918.784,VALID,0,VALID,68.4354,VALID,756.278,VALID,25.3765,VALID,190,VALID,1.57227,
2014-08-11, 10:16:04,VALID,918.778,VALID,0,VALID,69.4036,VALID,683.218,VALID,25.4937,VALID,133,VALID,0.0390625,
2014-08-11, 10:17:04,VALID,918.77,VALID,0,VALID,68.1686,VALID,735.327,VALID,25.6304,VALID,144,VALID,1.72891,
2014-08-11, 10:18:04,VALID,918.77,VALID,0,VALID,68.7175,VALID,594.472,VALID,25.5327,VALID,158,VALID,1.55508,
2014-08-11, 10:19:04,VALID,918.767,VALID,0,VALID,68.8852,VALID,533.123,VALID,25.4136,VALID,185,VALID,1.2332,
2014-08-11, 10:20:04,VALID,918.717,VALID,0,VALID,68.8852,VALID,456.088,VALID,25.396,VALID,188,VALID,1.50352,
2014-08-11, 10:21:04,VALID,918.728,VALID,0,VALID,68.8852,VALID,452.005,VALID,25.4546,VALID,141,VALID,1.26992,
2014-08-11, 10:22:04,VALID,918.749,VALID,0,VALID,70.0516,VALID,577.926,VALID,25.5503,VALID,168,VALID,0.0140625,
2014-08-11, 10:23:04,VALID,918.752,VALID,0,VALID,68.9995,VALID,550.206,VALID,25.6109,VALID,181,VALID,0.219922,
2014-08-11, 10:24:04,VALID,918.783,VALID,0,VALID,69.3502,VALID,561.058,VALID,25.6304,VALID,174,VALID,1.06172,
2014-08-11, 10:25:04,VALID,918.732,VALID,0,VALID,70.1964,VALID,617.464,VALID,25.689,VALID,146,VALID,0.0105469,
2014-08-11, 10:26:04,VALID,918.77,VALID,0,VALID,69.5942,VALID,590.497,VALID,25.648,VALID,168,VALID,1.39805,
2014-08-11, 10:27:04,VALID,918.763,VALID,0,VALID,67.9932,VALID,565.355,VALID,25.689,VALID,164,VALID,1.26406,
2014-08-11, 10:28:04,VALID,918.71,VALID,0,VALID,69.7314,VALID,493.262,VALID,25.5523,VALID,119,VALID,1.38008,
2014-08-11, 10:29:04,VALID,918.72,VALID,0,VALID,68.7785,VALID,524.205,VALID,25.689,VALID,55,VALID,0,
2014-08-11, 10:30:04,VALID,918.742,VALID,0,VALID,69.0986,VALID,545.909,VALID,25.7456,VALID,130,VALID,1.35078,
2014-08-11, 10:31:04,VALID,918.741,VALID,0,VALID,73.4974,VALID,618.969,VALID,25.7456,VALID,83,VALID,1.82109,
2014-08-11, 10:32:04,VALID,918.751,VALID,0,VALID,70.0897,VALID,709.756,VALID,25.6675,VALID,48,VALID,1.58984,
2014-08-11, 10:33:04,VALID,918.736,VALID,0,VALID,71.7516,VALID,696.004,VALID,25.648,VALID,78,VALID,1.67148,
2014-08-11, 10:34:04,VALID,918.691,VALID,0,VALID,72.8494,VALID,658.399,VALID,25.7085,VALID,64,VALID,1.7293,
2014-08-11, 10:35:04,VALID,918.706,VALID,0,VALID,72.674,VALID,660.656,VALID,25.7085,VALID,63,VALID,2.57734,
2014-08-11, 10:36:04,VALID,918.716,VALID,0,VALID,72.0413,VALID,638.093,VALID,25.5894,VALID,59,VALID,2.43867,
2014-08-11, 10:37:04,VALID,918.702,VALID,0,VALID,72.5978,VALID,579.215,VALID,25.5894,VALID,46,VALID,1.40391,
2014-08-11, 10:38:04,VALID,918.702,VALID,0,VALID,72.7045,VALID,591.356,VALID,25.4917,VALID,48,VALID,2.62773,
2014-08-11, 10:39:04,VALID,918.679,VALID,0,VALID,71.8126,VALID,553.429,VALID,25.4722,VALID,91,VALID,1.725,
2014-08-11, 10:40:04,VALID,918.664,VALID,0,VALID,70.8673,VALID,632.184,VALID,25.2965,VALID,49,VALID,3.0832,
2014-08-11, 10:41:04,VALID,918.699,VALID,0,VALID,72.552,VALID,611.018,VALID,25.1988,VALID,75,VALID,1.4082,
2014-08-11, 10:42:04,VALID,918.667,VALID,0,VALID,71.1265,VALID,549.132,VALID,25.2379,VALID,122,VALID,2.69453,
2014-08-11, 10:43:04,VALID,918.709,VALID,0,VALID,71.2027,VALID,495.089,VALID,25.0817,VALID,108,VALID,3.27617,
2014-08-11, 10:44:04,VALID,918.68,VALID,0,VALID,73.8709,VALID,460.385,VALID,24.984,VALID,122,VALID,1.47266,
2014-08-11, 10:45:04,VALID,918.68,VALID,0,VALID,73.6803,VALID,434.707,VALID,25.1012,VALID,55,VALID,2.32109,
2014-08-11, 10:46:04,VALID,918.664,VALID,0,VALID,72.0184,VALID,419.665,VALID,25.0212,VALID,123,VALID,2.02617,
2014-08-11, 10:47:04,VALID,918.676,VALID,0,VALID,71.3933,VALID,413.863,VALID,24.945,VALID,137,VALID,1.68242,
2014-08-11, 10:48:04,VALID,918.699,VALID,0,VALID,71.6906,VALID,409.136,VALID,24.8474,VALID,119,VALID,1.85859,
2014-08-11, 10:49:04,VALID,918.674,VALID,0,VALID,72.3691,VALID,399.251,VALID,24.7497,VALID,116,VALID,2.31406,
2014-08-11, 10:50:04,VALID,918.706,VALID,0,VALID,72.1709,VALID,389.044,VALID,24.6521,VALID,100,VALID,2.52656,
2014-08-11, 10:51:04,VALID,918.691,VALID,0,VALID,73.7642,VALID,382.813,VALID,24.574,VALID,80,VALID,1.88945,
2014-08-11, 10:52:04,VALID,918.668,VALID,0,VALID,71.7973,VALID,379.267,VALID,24.6326,VALID,56,VALID,1.39844,
2014-08-11, 10:53:04,VALID,918.681,VALID,0,VALID,74.214,VALID,377.871,VALID,24.6716,VALID,83,VALID,1.74766,
2014-08-11, 10:54:04,VALID,918.695,VALID,0,VALID,74.9306,VALID,378.945,VALID,24.7497,VALID,91,VALID,1.20039,
2014-08-11, 10:55:04,VALID,918.669,VALID,0,VALID,73.1848,VALID,383.457,VALID,24.7711,VALID,114,VALID,1.94531,
2014-08-11, 10:56:04,VALID,918.695,VALID,0,VALID,71.8431,VALID,389.904,VALID,24.6912,VALID,104,VALID,2.16016,
2014-08-11, 10:57:04,VALID,918.69,VALID,0,VALID,71.5381,VALID,396.458,VALID,24.6131,VALID,81,VALID,2.14922,
2014-08-11, 10:58:04,VALID,918.686,VALID,0,VALID,70.3946,VALID,404.623,VALID,24.5155,VALID,126,VALID,3.13242,
2014-08-11, 10:59:04,VALID,918.66,VALID,0,VALID,69.9982,VALID,413.326,VALID,24.4178,VALID,151,VALID,2.70039,
2014-08-11, 11:00:04,VALID,918.639,VALID,0,VALID,70.8749,VALID,424.178,VALID,24.5368,VALID,71,VALID,3.21836,
2014-08-11, 11:01:04,VALID,918.673,VALID,0,VALID,71.7668,VALID,434.599,VALID,24.6912,VALID,71,VALID,1.56875,
2014-08-11, 11:02:04,VALID,918.693,VALID,0,VALID,71.3018,VALID,445.129,VALID,24.7516,VALID,98,VALID,2.00273,
2014-08-11, 11:03:04,VALID,918.664,VALID,0,VALID,70.2727,VALID,453.509,VALID,24.6912,VALID,98,VALID,3.03008,
2014-08-11, 11:04:04,VALID,918.639,VALID,0,VALID,71.4162,VALID,460.708,VALID,24.5935,VALID,95,VALID,2.85703,
2014-08-11, 11:05:04,VALID,918.67,VALID,0,VALID,71.1875,VALID,467.047,VALID,24.574,VALID,129,VALID,1.13672,
2014-08-11, 11:06:04,VALID,918.674,VALID,0,VALID,70.8673,VALID,471.989,VALID,24.6521,VALID,130,VALID,2.47383,
2014-08-11, 11:07:04,VALID,918.65,VALID,0,VALID,71.3171,VALID,477.146,VALID,24.6131,VALID,81,VALID,2.10703,
2014-08-11, 11:08:04,VALID,918.668,VALID,0,VALID,69.678,VALID,481.766,VALID,24.6131,VALID,131,VALID,2.59531,
2014-08-11, 11:09:04,VALID,918.647,VALID,0,VALID,70.3336,VALID,481.444,VALID,24.6131,VALID,97,VALID,1.93125,